ZKEOX NZWF-NZWF

Flight info

Callsign ZKEOX
Flight time 0h 30m
Altitude 4000
Route MWAHO DCT NZMW DCT NZHT DCT 440024S1682318E DCT APONT DCT NZMJ DCT YPONT DCT DPONT DCT NZMF DCT ADA DCT MFLAT DCT NZGY DCT RPON1 DCT BCOVE DCT NZQN DCT BBRIE DCT NZLX DCT QPONS DCT ERIDE DCT MEPOM
Aircraft C172/L-SFG/C

Departure

Time 2026-04-14 05:24
Airport Wanaka Airport (NZWF)

Arrival

Time 2026-04-14 05:55
Airport Wanaka Airport (NZWF)
Time Latitude Longitude Altitude Speed Heading
2026-04-14 05:04 -44.72234 169.24470 1158 ft 0 kts 142°
2026-04-14 05:21 -44.72236 169.24473 1163 ft 4 kts 140°
2026-04-14 05:21 -44.72240 169.24530 1165 ft 8 kts 38°
2026-04-14 05:21 -44.72228 169.24547 1164 ft 0 kts 43°
2026-04-14 05:22 -44.72212 169.24573 1164 ft 12 kts 50°
2026-04-14 05:22 -44.72237 169.24666 1164 ft 12 kts 138°
2026-04-14 05:22 -44.72312 169.24758 1151 ft 16 kts 137°
2026-04-14 05:22 -44.72397 169.24852 1147 ft 8 kts 133°
2026-04-14 05:23 -44.72396 169.24871 1146 ft 0 kts
2026-04-14 05:23 -44.72352 169.24811 1152 ft 27 kts 313°
2026-04-14 05:23 -44.72104 169.24480 1211 ft 65 kts 317°
2026-04-14 05:23 -44.71721 169.24020 1340 ft 82 kts 325°
2026-04-14 05:24 -44.71137 169.23886 1446 ft 97 kts 14°
2026-04-14 05:24 -44.70440 169.24123 1548 ft 107 kts 10°
2026-04-14 05:24 -44.69711 169.24343 1660 ft 109 kts 11°
2026-04-14 05:24 -44.68965 169.24562 1764 ft 109 kts 11°
2026-04-14 05:25 -44.68218 169.24798 1854 ft 111 kts 12°
2026-04-14 05:25 -44.67453 169.25036 1947 ft 114 kts 12°
2026-04-14 05:25 -44.66677 169.25278 2053 ft 115 kts 11°
2026-04-14 05:25 -44.65894 169.25535 2151 ft 114 kts 11°
2026-04-14 05:26 -44.65122 169.25789 2251 ft 114 kts 12°
2026-04-14 05:26 -44.64352 169.26030 2350 ft 112 kts 12°
2026-04-14 05:26 -44.63601 169.26273 2447 ft 109 kts 11°
2026-04-14 05:26 -44.62869 169.26518 2554 ft 109 kts 12°
2026-04-14 05:27 -44.62125 169.26755 2658 ft 109 kts 11°
2026-04-14 05:27 -44.61389 169.26996 2764 ft 108 kts 11°
2026-04-14 05:27 -44.60649 169.27241 2873 ft 110 kts 12°
2026-04-14 05:27 -44.59903 169.27477 2982 ft 110 kts 11°
2026-04-14 05:28 -44.59157 169.27714 3091 ft 109 kts 12°
2026-04-14 05:28 -44.58421 169.27945 3195 ft 109 kts 12°
2026-04-14 05:28 -44.57679 169.28141 3304 ft 108 kts
2026-04-14 05:28 -44.56937 169.28047 3412 ft 106 kts 348°
2026-04-14 05:29 -44.56220 169.27845 3511 ft 105 kts 349°
2026-04-14 05:29 -44.55501 169.27651 3611 ft 105 kts 349°
2026-04-14 05:29 -44.54783 169.27460 3715 ft 104 kts 350°
2026-04-14 05:29 -44.54081 169.27245 3795 ft 105 kts 343°
2026-04-14 05:30 -44.53458 169.26705 3866 ft 108 kts 313°
2026-04-14 05:30 -44.53004 169.25859 3943 ft 110 kts 310°
2026-04-14 05:30 -44.52638 169.24911 4028 ft 112 kts 297°
2026-04-14 05:30 -44.52374 169.23880 4105 ft 112 kts 299°
2026-04-14 05:31 -44.51832 169.23170 4185 ft 105 kts 337°
2026-04-14 05:31 -44.51101 169.23048 4272 ft 108 kts 355°
2026-04-14 05:31 -44.50371 169.22970 4365 ft 103 kts 352°
2026-04-14 05:31 -44.49674 169.22923 4467 ft 102 kts
2026-04-14 05:32 -44.49022 169.22672 4553 ft 99 kts 323°
2026-04-14 05:32 -44.48762 169.21799 4627 ft 104 kts 271°
2026-04-14 05:32 -44.48866 169.21150 4691 ft 101 kts 258°
2026-04-14 05:32 -44.49603 169.20314 4801 ft 111 kts 190°
2026-04-14 05:33 -44.50125 169.20294 4848 ft 110 kts 184°
2026-04-14 05:33 -44.50904 169.20281 4944 ft 115 kts 185°
2026-04-14 05:33 -44.51698 169.20285 5016 ft 114 kts 184°
2026-04-14 05:34 -44.53294 169.20262 5172 ft 114 kts 185°
2026-04-14 05:34 -44.54095 169.20258 5226 ft 112 kts 184°
2026-04-14 05:34 -44.54866 169.20265 5321 ft 112 kts 185°
2026-04-14 05:34 -44.55625 169.20275 5390 ft 109 kts 183°
2026-04-14 05:35 -44.56381 169.20260 5418 ft 105 kts 184°
2026-04-14 05:35 -44.57107 169.20256 5461 ft 103 kts 184°
2026-04-14 05:35 -44.57835 169.20257 5519 ft 107 kts 184°
2026-04-14 05:35 -44.58600 169.20266 5575 ft 112 kts 183°
2026-04-14 05:36 -44.59392 169.20267 5638 ft 115 kts 184°
2026-04-14 05:36 -44.60203 169.20263 5694 ft 118 kts 183°
2026-04-14 05:36 -44.61017 169.20252 5758 ft 118 kts 183°
2026-04-14 05:36 -44.61832 169.20246 5809 ft 120 kts 184°
2026-04-14 05:37 -44.62662 169.20239 5863 ft 118 kts 184°
2026-04-14 05:37 -44.63479 169.20239 5911 ft 116 kts 183°
2026-04-14 05:37 -44.64281 169.20241 5958 ft 115 kts 184°
2026-04-14 05:37 -44.65084 169.20241 6013 ft 115 kts 183°
2026-04-14 05:38 -44.65879 169.20248 6047 ft 114 kts 184°
2026-04-14 05:38 -44.66662 169.20263 6090 ft 111 kts 183°
2026-04-14 05:38 -44.67424 169.20276 6136 ft 110 kts 184°
2026-04-14 05:38 -44.68189 169.20282 6174 ft 110 kts 185°
2026-04-14 05:39 -44.68866 169.19917 6181 ft 104 kts 226°
2026-04-14 05:39 -44.69446 169.19288 6183 ft 106 kts 223°
2026-04-14 05:39 -44.70046 169.18685 6184 ft 106 kts 221°
2026-04-14 05:39 -44.70549 169.17967 6188 ft 101 kts 248°
2026-04-14 05:40 -44.70751 169.17030 6191 ft 99 kts 267°
2026-04-14 05:40 -44.70719 169.16073 6191 ft 97 kts 283°
2026-04-14 05:40 -44.70491 169.15198 6190 ft 97 kts 295°
2026-04-14 05:40 -44.70231 169.14321 6192 ft 97 kts 295°
2026-04-14 05:41 -44.69936 169.13472 6193 ft 97 kts 310°
2026-04-14 05:41 -44.69441 169.12853 6222 ft 95 kts 325°
2026-04-14 05:41 -44.68892 169.12348 6243 ft 94 kts 326°
2026-04-14 05:41 -44.68355 169.11836 6266 ft 92 kts 325°
2026-04-14 05:42 -44.67790 169.11460 6312 ft 89 kts 339°
2026-04-14 05:42 -44.67201 169.11195 6333 ft 88 kts 339°
2026-04-14 05:42 -44.66621 169.10926 6367 ft 87 kts 340°
2026-04-14 05:42 -44.66050 169.10653 6382 ft 86 kts 339°
2026-04-14 05:43 -44.65484 169.10387 6406 ft 85 kts 340°
2026-04-14 05:43 -44.64923 169.10121 6429 ft 85 kts 339°
2026-04-14 05:43 -44.64373 169.09866 6452 ft 83 kts 339°
2026-04-14 05:43 -44.63815 169.09647 6476 ft 84 kts 347°
2026-04-14 05:44 -44.63240 169.09522 6502 ft 83 kts 347°
2026-04-14 05:44 -44.62673 169.09385 6532 ft 82 kts 347°
2026-04-14 05:44 -44.62115 169.09249 6553 ft 81 kts 347°
2026-04-14 05:44 -44.61564 169.09117 6573 ft 79 kts 347°
2026-04-14 05:45 -44.61023 169.08988 6585 ft 78 kts 347°
2026-04-14 05:45 -44.60491 169.08866 6612 ft 77 kts 347°
2026-04-14 05:45 -44.59970 169.08744 6630 ft 77 kts 346°
2026-04-14 05:45 -44.59443 169.08612 6646 ft 77 kts 345°
2026-04-14 05:46 -44.58903 169.08636 6655 ft 83 kts 16°
2026-04-14 05:46 -44.58443 169.09200 6637 ft 96 kts 49°
2026-04-14 05:46 -44.58073 169.09989 6639 ft 96 kts 48°
2026-04-14 05:46 -44.57702 169.10770 6636 ft 97 kts 54°
2026-04-14 05:47 -44.57504 169.11683 6636 ft 99 kts 78°
2026-04-14 05:47 -44.57536 169.12689 6505 ft 113 kts 110°
2026-04-14 05:47 -44.58049 169.13556 6381 ft 122 kts 136°
2026-04-14 05:47 -44.58681 169.14406 6244 ft 129 kts 136°
2026-04-14 05:48 -44.59337 169.15302 6121 ft 134 kts 135°
2026-04-14 05:48 -44.60017 169.16226 5993 ft 138 kts 135°
2026-04-14 05:48 -44.60717 169.17165 5842 ft 139 kts 136°
2026-04-14 05:48 -44.61422 169.18104 5690 ft 140 kts 136°
2026-04-14 05:49 -44.62128 169.19047 5540 ft 140 kts 136°
2026-04-14 05:49 -44.62835 169.19990 5386 ft 141 kts 136°
2026-04-14 05:49 -44.63549 169.20938 5233 ft 141 kts 136°
2026-04-14 05:49 -44.64260 169.21881 5080 ft 139 kts 136°
2026-04-14 05:50 -44.65008 169.22710 4914 ft 136 kts 147°
2026-04-14 05:50 -44.65786 169.23416 4761 ft 134 kts 147°
2026-04-14 05:50 -44.66582 169.24138 4605 ft 135 kts 147°
2026-04-14 05:50 -44.67362 169.24841 4455 ft 135 kts 147°
2026-04-14 05:51 -44.68155 169.25556 4308 ft 135 kts 147°
2026-04-14 05:51 -44.68948 169.26263 4151 ft 134 kts 147°
2026-04-14 05:51 -44.69727 169.26948 3993 ft 130 kts 147°
2026-04-14 05:51 -44.70487 169.27620 3839 ft 129 kts 147°
2026-04-14 05:52 -44.71246 169.28292 3670 ft 126 kts 147°
2026-04-14 05:52 -44.71931 169.28881 3496 ft 108 kts 148°
2026-04-14 05:52 -44.72554 169.29392 3300 ft 100 kts 152°
2026-04-14 05:52 -44.73240 169.29580 3024 ft 99 kts 177°
2026-04-14 05:53 -44.73815 169.29242 2723 ft 81 kts 237°
2026-04-14 05:53 -44.74045 169.28593 2497 ft 72 kts 255°
2026-04-14 05:53 -44.74181 169.27901 2219 ft 76 kts 277°
2026-04-14 05:53 -44.74023 169.27238 1970 ft 69 kts 308°
2026-04-14 05:54 -44.73703 169.26676 1637 ft 75 kts 316°
2026-04-14 05:54 -44.73330 169.26165 1413 ft 76 kts 321°
2026-04-14 05:54 -44.72934 169.25680 1297 ft 74 kts 329°
2026-04-14 05:54 -44.72557 169.25271 1161 ft 59 kts 322°
2026-04-14 05:55 -44.72309 169.24969 1144 ft 33 kts 316°
2026-04-14 05:55 -44.72241 169.24886 1149 ft 0 kts 322°
2026-04-14 05:55 -44.72235 169.24880 1153 ft 3 kts 329°
2026-04-14 05:55 -44.72191 169.24850 1150 ft 9 kts 317°
2026-04-14 05:56 -44.72165 169.24800 1159 ft 11 kts 306°
2026-04-14 05:56 -44.72130 169.24696 1159 ft 7 kts 243°
2026-04-14 05:56 -44.72136 169.24682 1159 ft 2 kts 226°
2026-04-14 05:56 -44.72177 169.24623 1164 ft 9 kts 226°
2026-04-14 05:57 -44.72234 169.24538 1167 ft 17 kts 233°
2026-04-14 05:57 -44.72232 169.24451 1171 ft 8 kts 303°
2026-04-14 05:57 -44.72232 169.24437 1171 ft 0 kts 224°